Flag for Germany Weather past 2 weeks in Forchheim, Bavaria, Germany

Now
53 °F

Fog.


Feels Like: 53 °F
Forecast: 60 / 89 °F
Wind: 1 mph from East

Location: Bamberg

Current Time: Aug 3, 2015 at 5:35:15 AM

Latest Report: Aug 3, 2015 at 5:00 AM


Visibility: 4 mi

Pressure: 30.09 "Hg

Humidity: 97%

Dew point: 52 °F

Location of ForchheimLocation

Historic Weather in Forchheim — Graph

°F

Forchheim temperature yesterday

Maximum temperature yesterday: 84 °F (at 3:00 PM)
Minimum temperature yesterday: 51 °F (at 5:00 AM)
Average temperature yesterday: 70 °F

Past Weeks' High & Low Weather Summary

 TemperatureHumidityPressure
High95 °F (Jul 22, 4:00 PM)99% (Jul 23, 2:00 AM)30.13 "Hg (Jul 23, 2:00 AM)
Low44 °F (Jul 31, 4:00 AM)25% (Jul 26, 6:00 PM)29.64 "Hg (Jul 25, 1:00 AM)
Average67 °F65%29.90 "Hg
* Reported Jul 19 4:00 AM — Aug 3 4:00 AM, Forchheim, Weather by CustomWeather, © 2015

Note: Actual official high and low records may vary slightly from our data, if they occured in-between our weather recording intervals... More about our weather records

Advertising

Forchheim weather history for previous 24 hours

 ConditionsComfort  
Time TempWeatherWind HumidityBarometerVisibility
4:00 AM
Mon, Aug 3
53 °FClear.1 mph96%30.09 "Hg6 mi
3:00 AM54 °FPassing clouds.1 mph96%30.09 "Hg7 mi
2:00 AM55 °FClear.1 mph93%30.09 "Hg9 mi
1:00 AM58 °FPassing clouds.1 mph88%30.08 "Hg12 mi
11:00 PM
Sun, Aug 2
61 °FOvercast.No wind87%30.07 "Hg14 mi
10:00 PM63 °FClear.1 mph79%30.06 "Hg19 mi
9:00 PM70 °FClear.1 mph64%30.03 "Hg34 mi
8:00 PM81 °FSunny.2 mph35%30.01 "Hg40 mi
7:00 PM84 °FPartly sunny.3 mph28%30.01 "Hg28 mi
6:00 PM82 °FOvercast.2 mph34%30.02 "Hg43 mi
5:00 PM83 °FOvercast.2 mph27%30.02 "Hg43 mi
4:00 PM84 °FPartly sunny.3 mph29%30.02 "Hg37 mi
3:00 PM84 °FPassing clouds.3 mph27%30.03 "Hg25 mi
2:00 PM82 °FSunny.5 mph27%30.05 "Hg28 mi
1:00 PM81 °FSunny.3 mph32%30.06 "Hg25 mi
12:00 PM79 °FSunny.3 mph40%30.07 "Hg25 mi
11:00 AM73 °FSunny.2 mph52%30.08 "Hg19 mi
10:00 AM68 °FSunny.1 mph63%30.09 "Hg10 mi
9:00 AM63 °FPartly sunny.1 mph72%30.09 "Hg12 mi
8:00 AM57 °FSunny.1 mph85%30.10 "Hg9 mi
7:00 AM51 °FPassing clouds.1 mph96%30.10 "Hg7 mi
5:00 AM51 °FOvercast.1 mph97%30.07 "Hg5 mi
Weather by CustomWeather, © 2015

See weather overviewHow to use our weather pages